Location: Arclight Observatory
(36.5667°N, 87.3333°W)
Time: 12:35:52
(UTC-05:00)

ISS - Visible Passes

Search period start: 24 May 2016 00:00
Search period end: 03 June 2016 00:00
Orbit: 402 x 404 km, 51.6° (Epoch: 24 May)

Date Brightness Start Highest point End Pass type
(mag) Time Alt. Az. Time Alt. Az. Time Alt. Az.
24 May 0.3 04:00:51 10° NNE 04:01:17 10° NNE 04:01:43 10° NNE visible
25 May -0.9 04:42:42 10° NNW 04:45:31 26° NNE 04:48:21 10° E visible
26 May -0.1 03:50:24 10° NNW 03:52:35 17° NNE 03:54:47 10° ENE visible
26 May -1.5 20:29:10 10° SSE 20:30:46 13° SE 20:32:22 10° E visible
26 May -2.5 22:03:42 10° WSW 22:06:53 50° NW 22:10:04 10° NE visible
26 May 0.3 23:43:21 10° NNW 23:43:57 10° NNW 23:44:33 10° N visible
27 May 0.2 02:58:26 10° N 02:59:33 11° NNE 03:00:41 10° NE visible
27 May -2.7 04:33:19 10° NW 04:36:34 61° NE 04:39:47 10° ESE visible
27 May -3.5 21:10:52 10° SW 21:14:07 75° SE 21:17:22 10° NE visible
27 May -0.1 22:48:54 10° WNW 22:50:53 15° NNW 22:52:53 10° NNE visible
28 May -1.3 03:40:45 10° NNW 03:43:43 31° NE 03:46:40 10° E visible
28 May -0.7 21:55:13 10° W 21:57:54 23° NNW 22:00:36 10° NNE visible
29 May -0.4 02:48:23 10° NNW 02:50:47 19° NNE 02:53:12 10° ENE visible
29 May -3.2 04:24:15 10° WNW 04:27:24 47° SW 04:30:32 10° SSE visible
29 May -1.9 21:01:54 10° WSW 21:05:00 41° NW 21:08:08 10° NE visible
30 May 0.1 01:56:14 10° N 01:57:45 13° NNE 01:59:16 10° NE visible
30 May -3.3 03:31:24 10° NW 03:34:39 76° NE 03:37:54 10° SE visible
30 May 0.0 21:47:22 10° NW 21:49:04 13° NNW 21:50:45 10° N visible
31 May -0.4 20:53:31 10° W 20:56:02 20° NNW 20:58:33 10° NNE visible
02 Jun 0.2 00:54:03 10° N 00:54:18 11° N 00:54:18 11° N visible
02 Jun 0.0 20:45:49 10° NW 20:47:10 12° NNW 20:48:32 10° N visible
